Tenerife > ESTACION METEOROLÓGICA Galería de Vergara - La Guancha

DATOS ACTUALES Online

Ultima actulizacion 21 minutos

12.2 ºC

Temperatura

85

Humedad (%)

858.57

Presión (mb)

0

Precipitación (mm)

8.5 NW

Viento (Km/h)

DATOS DIARIOS

Temperatura últimas 24 horas (ºC)

Humedad últimas 24 horas (%)

Presión atmosférica últimas 24 horas (mb)

Precipitaciones últimas 23 horas (mm)

Viento últimas 24 horas (Km/h)

Hora Temperatura (°C) ºC Precipitación (mm) mm Presión (mb) mb Humedad (%) % Viento (Km/h) km/h
28 - 11:00 14.5 0 858 73 15.5 N
28 - 12:00 16 0 858 76 12.5 NW
28 - 13:00 13.9 0 858 85 10.5 NW
28 - 14:00 13.7 0 858 87 12.8 NW
28 - 15:00 13.6 0 858 88 9.2 W
28 - 16:00 14.1 0 858 84 9.9 NW
28 - 17:00 13.5 0 858 87 7.9 W
28 - 18:00 13 0 858 89 8.7 W
28 - 19:00 12.2 0 858 93 8.6 N
28 - 20:00 11.7 0 858 94 5.1 N
28 - 21:00 11 0 858 96 5.4 N
28 - 22:00 10.4 0 859 96 4.7 NO
28 - 23:00 9.2 0 859 96 5.7 SO
29 - 00:00 8.2 0 859 83 6.2 S
29 - 01:00 8.6 0 858 82 4 S
29 - 02:00 8.1 0 858 92 7.1 S
29 - 03:00 7.7 0 857 87 6.4 S
29 - 04:00 7.9 0 857 92 10.7 SO
29 - 05:00 7.1 0 857 86 8.2 S
29 - 06:00 7 0 858 79 10.3 S
29 - 07:00 7.6 0 858 78 6.6 S
29 - 08:00 10.8 0 858 78 5.4 O
29 - 09:00 11.5 0 858 90 6.3 NO
29 - 10:00 12.2 0 859 85 8.5 NW
29 - 11:00
Apalmet utiliza cookies propias y de terceros para mejorar la usabilidad y la experiencia web. Política de cookies.